Lid_Strength_Index
1 1 1 1 0 0 0 0 1 1 1 2 3 3 3 3 4 5 5 2 3 1 2 8 8 8 8 10 9 11 15 17 15 14 12 9 9 9 8 9 8 7 7 6 4
2 2 1 1 1 2 1 1 1 1 2 2 2 3 2 3 5 6 1 -0 0 1 8 9 9 7 10 11 11 13 15 14 11 11 10 9 9 9 9 9 9 8 6 5 5
3 2 2 2 2 2 2 2 2 1 1 2 2 3 3 4 6 5 -0 0 0 1 7 8 7 7 10 10 10 11 12 11 9 9 9 9 8 8 9 10 9 9 8 7 7
3 2 3 3 3 2 2 3 3 1 1 2 3 3 3 6 11 6 0 -0 0 3 6 7 7 9 10 10 9 12 9 8 8 7 8 9 9 9 10 9 7 8 8 8 8
2 2 3 3 3 3 3 3 2 1 1 2 3 3 6 7 6 2 -1 -1 3 6 7 8 8 8 10 9 8 10 9 8 7 7 8 8 9 8 8 8 8 8 8 8 8
3 2 2 3 3 3 3 3 2 2 2 2 2 4 7 10 4 3 3 3 4 6 7 7 7 7 8 9 10 9 9 9 8 9 8 8 9 9 8 7 6 6 7 7 7
3 3 3 3 2 2 2 3 2 3 2 1 2 5 7 8 3 4 4 4 4 5 7 6 6 8 8 9 8 8 11 10 10 10 10 8 11 10 7 8 7 7 6 7 7
3 3 3 3 3 2 2 3 3 2 1 1 3 6 9 3 4 4 5 5 4 4 5 4 5 8 9 8 9 11 11 15 11 10 9 11 13 9 7 8 9 8 7 6 7
4 4 4 3 3 3 3 2 1 0 1 2 5 7 9 2 5 4 4 6 4 4 4 4 6 9 9 12 14 13 17 15 13 9 10 10 12 9 7 8 8 8 7 6 7
4 3 3 3 3 2 1 2 2 3 3 4 5 9 7 8 4 4 4 4 5 6 6 8 10 12 12 13 18 16 15 15 15 12 11 11 11 9 8 9 8 8 7 7 8
2 2 2 2 2 2 3 4 6 7 7 9 8 8 6 5 4 5 5 5 6 8 10 9 13 15 12 12 11 12 13 14 12 11 11 12 11 11 9 9 9 8 7 7 6
2 2 2 2 1 2 4 7 6 6 10 7 6 7 6 6 9 7 5 8 9 11 10 12 13 10 10 10 11 11 13 13 12 10 11 12 12 10 9 9 7 7 6 6 5
2 2 2 3 2 3 5 5 3 5 11 9 7 8 7 6 9 9 7 8 10 12 11 13 12 9 10 11 12 12 13 13 13 12 11 12 14 12 10 8 6 6 5 5 6
2 3 3 3 4 4 5 3 3 4 16 13 9 8 6 5 8 5 6 8 10 11 11 12 9 10 10 11 11 14 10 11 12 13 17 11 18 13 11 9 8 7 7 6 6
3 3 3 2 6 5 4 3 4 5 24 12 9 5 5 8 7 7 5 7 10 10 11 12 11 12 12 11 10 12 10 11 12 14 15 14 17 13 10 11 10 9 8 8 7
4 4 3 3 4 4 3 4 4 13 22 12 9 9 9 8 7 7 7 6 7 9 10 11 8 9 10 9 9 9 11 11 12 14 19 14 16 16 13 11 10 8 8 7 8
3 3 2 2 5 3 3 5 13 18 11 13 11 9 9 10 9 9 9 10 12 15 14 11 11 9 8 11 10 11 14 18 20 19 20 13 15 14 12 10 9 9 9 9 9
4 4 3 2 4 3 3 9 17 14 14 9 9 9 11 10 10 9 11 13 11 11 13 16 17 11 9 10 12 13 13 18 22 22 20 13 19 16 10 10 9 9 9 9 10
4 5 6 4 3 2 7 15 14 13 10 11 10 11 13 10 10 10 10 11 10 9 14 15 15 9 9 8 9 13 15 12 16 16 19 16 15 11 11 12 12 13 12 11 10
7 6 6 3 2 3 10 13 12 9 8 8 13 11 13 11 11 11 11 9 9 8 8 11 15 10 9 8 8 11 10 16 16 21 22 18 17 17 13 13 12 13 13 13 11
5 9 5 2 2 7 13 12 10 7 7 9 11 12 12 12 11 13 12 10 8 9 8 10 12 13 10 12 13 13 13 13 14 16 21 21 19 11 12 11 12 12 12 11 13
5 10 5 2 9 10 11 9 7 8 7 8 9 10 11 11 12 12 13 10 8 8 11 10 12 16 13 9 8 10 12 13 17 18 17 17 18 9 9 9 10 11 11 12 12
8 8 4 4 12 11 9 9 8 9 9 9 10 9 9 11 13 11 11 8 7 9 11 10 14 18 16 12 10 12 11 11 12 14 17 19 17 9 9 10 10 12 12 12 13
8 11 9 8 8 10 11 11 11 7 9 8 9 8 9 11 9 12 12 8 8 8 7 8 13 15 18 15 12 14 12 11 13 17 16 16 15 12 11 12 12 12 12 13 13
8 9 9 12 11 9 9 9 11 12 8 8 10 10 10 13 11 12 10 10 9 7 9 10 15 13 12 11 11 12 13 12 12 12 15 14 14 12 12 12 12 12 12 13 14
8 8 7 10 9 9 10 11 11 10 9 11 11 10 9 12 11 12 11 11 11 10 10 10 15 13 14 11 12 14 13 13 13 12 13 12 13 10 11 11 12 13 13 14 14
5 3 6 8 10 10 10 10 10 9 8 7 9 9 10 9 8 8 8 8 9 10 12 12 13 14 17 13 13 16 15 12 12 12 12 15 13 12 14 14 13 13 13 14 15